Enid, OK

12:43 PM CST on January 17, 2018 (GMT -0600)
Enid Woodring Municipal

Weather History for KWDG - March, 2013

Change the Weather History Date:

Sunday, March 10, 2013

  Actual Average Record
Temperature  
Mean Temperature 40 °F -  
Max Temperature 46 °F 54 °F 77 °F (2014)
Min Temperature 32 °F 34 °F 14 °F (1998)
Degree Days  
Heating Degree Days 26    
Moisture  
Dew Point 33 °F    
Average Humidity 83    
Maximum Humidity 93    
Minimum Humidity 70    
Precipitation  
Precipitation 0.00 in - - ()
Sea Level Pressure  
Sea Level Pressure 29.87 in    
Wind  
Wind Speed 14 mph (NNW)    
Max Wind Speed 25 mph    
Max Gust Speed 33 mph    
Visibility 10 miles    
Events      
Averages and records for this station are not official NWS values.
T = Trace of Precipitation, MM = Missing Value Source: NWS Daily Summary

Daily Weather History Graph

Daily Weather History Graph

Search for Another Location

Airport or City:

Trip Planner

Search our weather history database for the weather conditions in past years. The results will help you decide how hot, cold, wet, or windy it might be!

Date:

Astronomy

Mar. 10, 2013 Rise Set
Actual Time 7:48 AM CDT 7:34 PM CDT
Civil Twilight 7:23 AM CDT 8:00 PM CDT
Nautical Twilight 6:53 AM CDT 8:29 PM CDT
Astronomical Twilight 6:23 AM CDT 8:59 PM CDT
Moon 6:48 AM CDT (3/10) 6:43 PM CDT (3/10)
Length of Visible Light 12h 37m
Length of Day
11h 45m
Waning Crescent, 2% of the Moon is Illuminated
Mar 10
Waning Crescent
Mar 11
New
Mar 19
First Quarter
Mar 27
Full
Apr 2
Last Quarter

Hourly Weather History & Observations

Time (CDT) Temp. Windchill Dew Point Humidity Pressure Visibility Wind Dir Wind Speed Gust Speed Precip Events Conditions
12:15 AM 46.4 °F 42.4 °F 41.0 °F 81% 29.66 in 10.0 mi WNW 8.1 mph - N/A   Clear
12:35 AM 44.6 °F 38.1 °F 39.2 °F 81% 29.67 in 10.0 mi West 13.8 mph - N/A   Clear
12:55 AM 44.6 °F 38.1 °F 39.2 °F 81% 29.68 in 10.0 mi WNW 13.8 mph 19.6 mph N/A   Clear
1:15 AM 44.6 °F 40.2 °F 37.4 °F 76% 29.69 in 10.0 mi WNW 8.1 mph - N/A   Clear
1:35 AM 42.8 °F 36.6 °F 37.4 °F 81% 29.69 in 10.0 mi WNW 11.5 mph - N/A   Clear
1:55 AM 42.8 °F 35.1 °F 37.4 °F 81% 29.67 in 10.0 mi WNW 16.1 mph 21.9 mph N/A   Clear
3:15 AM 42.8 °F 35.1 °F 37.4 °F 81% 29.69 in 10.0 mi WNW 16.1 mph 20.7 mph N/A   Mostly Cloudy
3:55 AM 42.8 °F 34.8 °F 37.4 °F 81% 29.70 in 10.0 mi NW 17.3 mph 26.5 mph N/A   Overcast
4:15 AM 41.0 °F 33.1 °F 37.4 °F 87% 29.68 in 10.0 mi NW 15.0 mph 23.0 mph N/A   Overcast
4:35 AM 41.0 °F 31.9 °F 35.6 °F 81% 29.67 in 10.0 mi NW 19.6 mph - N/A   Overcast
4:55 AM 41.0 °F 32.5 °F 37.4 °F 87% 29.70 in 10.0 mi NW 17.3 mph 24.2 mph N/A   Overcast
5:15 AM 41.0 °F 31.1 °F 35.6 °F 81% 29.70 in 10.0 mi NW 23.0 mph 33.4 mph N/A   Overcast
5:35 AM 41.0 °F 31.6 °F 35.6 °F 81% 29.70 in 10.0 mi NW 20.7 mph 26.5 mph N/A   Overcast
5:55 AM 39.2 °F 29.3 °F 35.6 °F 87% 29.72 in 10.0 mi NNW 20.7 mph 28.8 mph N/A   Overcast
6:17 AM 39.2 °F 28.7 °F 35.6 °F 87% 29.73 in 10.0 mi NNW 23.0 mph 27.6 mph N/A   Overcast
7:50 AM 37.4 °F 27.8 °F 33.8 °F 87% 29.77 in 10.0 mi NNW 17.3 mph 29.9 mph N/A   Overcast
8:50 AM 37.4 °F 27.5 °F 33.8 °F 87% 29.79 in 10.0 mi North 18.4 mph 25.3 mph N/A   Overcast
9:50 AM 37.4 °F 27.2 °F 32.0 °F 81% 29.83 in 10.0 mi North 19.6 mph 32.2 mph N/A   Overcast
11:55 AM 37.4 °F 26.1 °F 30.2 °F 75% 29.89 in 10.0 mi NW 24.2 mph 32.2 mph N/A   Overcast
12:50 PM 35.6 °F 23.4 °F 28.4 °F 75% 29.90 in 10.0 mi NW 25.3 mph 32.2 mph N/A   Overcast
1:50 PM 37.4 °F 26.4 °F 28.4 °F 70% 29.92 in 10.0 mi NW 23.0 mph 32.2 mph N/A   Overcast
2:50 PM 35.6 °F 23.7 °F 28.4 °F 75% 29.93 in 10.0 mi NNW 24.2 mph 32.2 mph N/A   Overcast
3:50 PM 35.6 °F 24.0 °F 26.6 °F 70% 29.96 in 10.0 mi NNW 23.0 mph 32.2 mph N/A   Overcast
4:50 PM 35.6 °F 24.2 °F 26.6 °F 70% 29.97 in 10.0 mi North 21.9 mph 32.2 mph N/A   Overcast
7:50 PM 33.8 °F 24.3 °F 28.4 °F 81% 30.01 in 10.0 mi North 13.8 mph - N/A   Overcast
8:50 PM 33.8 °F 23.2 °F 28.4 °F 81% 30.02 in 10.0 mi NNW 17.3 mph - N/A   Overcast
9:15 PM 33.8 °F 25.8 °F 30.2 °F 87% 30.03 in 10.0 mi North 10.4 mph - N/A   Overcast
9:35 PM 33.8 °F 26.4 °F 30.2 °F 87% 30.04 in 10.0 mi North 9.2 mph - N/A   Overcast
9:55 PM 33.8 °F 27.7 °F 30.2 °F 87% 30.05 in 10.0 mi North 6.9 mph - N/A   Overcast
10:15 PM 33.8 °F 27.7 °F 30.2 °F 87% 30.06 in 10.0 mi North 6.9 mph - N/A   Overcast
10:35 PM 33.8 °F 29.6 °F 30.2 °F 87% 30.06 in 10.0 mi North 4.6 mph - N/A   Overcast
10:55 PM 33.8 °F 29.6 °F 30.2 °F 87% 30.06 in 10.0 mi NNW 4.6 mph - N/A   Overcast
11:15 PM 33.8 °F 30.8 °F 30.2 °F 87% 30.06 in 10.0 mi NNW 3.5 mph - N/A   Overcast
11:35 PM 33.8 °F 30.8 °F 30.2 °F 87% 30.06 in 10.0 mi NNW 3.5 mph - N/A   Overcast
11:55 PM 33.8 °F - 30.2 °F 87% 30.05 in 10.0 mi Calm Calm - N/A   Overcast
12:15 AM 33.8 °F - 30.2 °F 87% 30.05 in 10.0 mi Calm Calm - N/A   Overcast
12:35 AM 33.8 °F 30.8 °F 30.2 °F 87% 30.04 in 10.0 mi NNW 3.5 mph - N/A   Mostly Cloudy
12:55 AM 32.0 °F 28.7 °F 30.2 °F 93% 30.04 in 10.0 mi NW 3.5 mph - N/A   Scattered Clouds